Location: Beccas
(43.4309°N, 0.1528°E)
Time: 20:58:45
(UTC+00:00)

Tiros 1 - All Passes

Search period start: 27 May 2022 00:00
Search period end: 06 June 2022 00:00
Orbit: 629 x 663 km, 48.4° (Epoch: 26 May)

Date Brightness Start Highest point End Pass type
(mag) Time Alt. Az. Time Alt. Az. Time Alt. Az.
27 May - 01:16:28 10° WSW 01:21:06 77° NNW 01:25:47 10° ENE visible
27 May - 02:59:12 10° WNW 03:03:40 45° N 03:08:11 10° ENE visible
27 May - 04:41:41 10° WNW 04:46:20 64° NNE 04:51:02 10° E daylight
27 May - 06:24:00 10° WNW 06:28:26 42° SW 06:32:54 10° SE daylight
27 May - 22:21:20 10° SSE 22:23:18 13° SE 22:25:17 10° ESE visible
28 May - 00:00:12 10° SW 00:04:44 58° SSE 00:09:18 10° ENE visible
28 May - 01:42:27 10° W 01:46:59 54° NNW 01:51:35 10° ENE visible
28 May - 03:25:11 10° WNW 03:29:42 47° N 03:34:15 10° E visible
28 May - 05:07:27 10° WNW 05:12:10 83° SSW 05:16:54 10° ESE daylight
28 May - 06:50:21 10° W 06:53:52 21° SW 06:57:24 10° S daylight
28 May - 22:44:43 10° SSW 22:48:36 27° SE 22:52:30 10° E visible
29 May - 00:25:49 10° WSW 00:30:26 81° NNW 00:35:07 10° ENE visible
29 May - 02:08:31 10° WNW 02:12:59 45° N 02:17:30 10° ENE visible
29 May - 03:51:02 10° WNW 03:55:40 61° NNE 04:00:20 10° E visible
29 May - 05:33:19 10° WNW 05:37:48 45° SW 05:42:18 10° SE daylight
29 May - 21:31:17 10° SSE 21:32:43 11° SE 21:34:09 10° ESE night (unlit)
29 May - 23:09:36 10° SW 23:14:06 54° SSE 23:18:37 10° ENE visible
30 May - 00:51:46 10° W 00:56:19 55° NNW 01:00:55 10° ENE visible
30 May - 02:34:31 10° WNW 02:39:01 46° N 02:43:33 10° E visible
30 May - 04:16:48 10° WNW 04:21:29 88° SW 04:26:13 10° ESE daylight
30 May - 05:59:35 10° W 06:03:15 23° SW 06:06:56 10° S daylight
30 May - 21:54:14 10° SSW 21:58:00 25° SE 22:01:45 10° E visible
30 May - 23:35:10 10° WSW 23:39:47 86° NNW 23:44:27 10° ENE visible
31 May - 01:17:50 10° WNW 01:22:18 45° N 01:26:48 10° ENE visible
31 May - 03:00:23 10° WNW 03:04:59 58° NNE 03:09:38 10° E visible
31 May - 04:42:39 10° WNW 04:47:10 49° SW 04:51:42 10° SE daylight
31 May - 06:28:18 10° SW 06:28:31 10° SW 06:28:44 10° SW daylight
31 May - 20:41:52 10° SE 20:42:08 10° SE 20:42:23 10° SE night (unlit)
31 May - 22:19:01 10° SW 22:23:28 50° SE 22:27:56 10° ENE visible
01 Jun - 00:01:05 10° W 00:05:38 57° NNW 00:10:14 10° ENE visible
01 Jun - 01:43:51 10° WNW 01:48:19 46° N 01:52:50 10° E visible
01 Jun - 03:26:09 10° WNW 03:30:50 88° NNE 03:35:32 10° ESE visible
01 Jun - 05:08:50 10° W 05:12:38 25° SW 05:16:27 10° SSE daylight
01 Jun - 21:03:46 10° S 21:07:23 23° SE 21:11:00 10° E visible
01 Jun - 22:44:30 10° WSW 22:49:07 89° S 22:53:47 10° ENE visible
02 Jun - 00:27:09 10° W 00:31:37 46° N 00:36:06 10° ENE visible
02 Jun - 02:09:44 10° WNW 02:14:18 56° NNE 02:18:55 10° E visible
02 Jun - 03:51:59 10° WNW 03:56:31 53° SSW 04:01:05 10° SE daylight
02 Jun - 05:36:31 10° WSW 05:37:54 11° SW 05:39:18 10° SSW daylight
02 Jun - 21:28:26 10° SW 21:32:50 46° SE 21:37:14 10° ENE visible
02 Jun - 23:10:24 10° W 23:14:57 60° NNW 23:19:33 10° ENE visible
03 Jun - 00:53:10 10° WNW 00:57:38 45° N 01:02:08 10° ENE visible
03 Jun - 02:35:30 10° WNW 02:40:10 83° NNE 02:44:52 10° ESE visible
03 Jun - 04:18:06 10° W 04:22:01 27° SW 04:25:56 10° SSE daylight
03 Jun - 20:13:19 10° S 20:16:46 21° SE 20:20:13 10° E visible
03 Jun - 21:53:51 10° WSW 21:58:28 85° SSE 22:03:06 10° ENE visible
03 Jun - 23:36:27 10° W 23:40:55 47° N 23:45:25 10° ENE visible
04 Jun - 01:19:04 10° WNW 01:23:37 54° NNE 01:28:12 10° E visible
04 Jun - 03:01:18 10° WNW 03:05:52 57° SSW 03:10:27 10° SE visible
04 Jun - 04:45:23 10° WSW 04:47:19 12° SW 04:49:15 10° SSW daylight
04 Jun - 20:37:51 10° SW 20:42:12 42° SE 20:46:33 10° ENE visible
04 Jun - 22:19:42 10° W 22:24:17 62° NNW 22:28:53 10° ENE visible
05 Jun - 00:02:29 10° WNW 00:06:56 45° N 00:11:24 10° ENE visible
05 Jun - 01:44:51 10° WNW 01:49:29 79° NNE 01:54:10 10° ESE visible
05 Jun - 03:27:22 10° W 03:31:23 29° SW 03:35:24 10° SSE visible
05 Jun - 19:22:54 10° S 19:26:09 19° SE 19:29:26 10° E daylight
05 Jun - 21:03:12 10° WSW 21:07:48 80° SSE 21:12:26 10° ENE visible
05 Jun - 22:45:45 10° W 22:50:14 47° N 22:54:43 10° ENE visible
